Погода в Мостовском

Россия / Курганская область     55°43′58″N   66°08′13″E
темп.,
°C
ветер,
м/с
пор.,
м/с
влажн.,
%
обл.,
%
осадки,
мм/ч
давл.,
гПа
погр.,
м
21 апреля, ср
ср2123:00+1з486367 0.0 1027121
02:00+1зсз47681 0.0 1027113
05:000сз37755 0.0 1028114
08:00+4ссз35655 0.0 1029265
11:00+9с45565 0.0 10301072
14:00+11с5646100 0.0 10301865
17:00+9ссв455398 0.0 1032889
20:00+7всв346418 0.0 103345
22 апреля, чт
чт2223:00+5вюв227229 0.0 103518
02:00+3вюв34765 0.0 103549
05:00+2юв36755 0.0 103887
08:00+5ююв575973 0.0 1039299
11:00+10ююв67475 0.0 1038815
14:00+12ююв66425 0.0 10381412
17:00+12ююв6642100 0.0 10371634
20:00+9ююв61252100 0.0 1037371
23 апреля, пт
пт2323:00+7ююв61450100 0.0 1037371
02:00+5ююв51252100 0.0 1037274
05:00+4ююв5116689 0.0 1037213
08:00+7ю61160100 0.0 1037363
11:00+10ю6945100 0.0 1036672
14:00+12ю7939100 0.0 10351144
17:00+12ю6838100 0.0 10351480
20:00+9ююв5104798 0.0 1034225
24 апреля, сб
сб2423:00+7ююв41152100 0.0 1033235
02:00+5ююв41055100 0.0 1032213
05:00+5ююв4957100 0.0 1031181
08:00+6ююв4954100 0.0 1030327
11:00+8ююв5754100 0.0 1029482
14:00+10ююв6844100 0.0 1028858
17:00+10ююв6841100 0.0 10261124
20:00+8юв51048100 0.0 1025363
25 апреля, вс
вс2523:00+7юв4951100 0.0 1023259
02:00+6юв395899 0.0 1022207
05:00+5вюв4961100 0.0 1020228
08:00+7юв5953100 0.0 1019426
11:00+10ю5746100 0.0 1018924
14:00+11юв245496 0.1 10181069
17:00+15юв363274 0.1 10162072
20:00+11ю334591 0.0 101535